Back to catalog

FENGYUN 1C DEB

AliveSSO
NORAD 29970·DEBRIS·🇨🇳 China

Launched May 10, 1999 from Taiyuan Satellite Launch Center

Loading…

Next Passes (next 24 hours)

TLE

FreshSource: Space-Track

Epoch: Sep 14, 2026, 14:54 UTC

1 29970U 99025KU  26257.62109083  .00001072  00000-0  30671-3 0  9993
2 29970  98.8260 201.1449 0091227  83.5152  88.4778 14.44822571 31035

Track FENGYUN 1C DEB in real time with AllMySat

Download on the App Store